Location: Perryvale
(54.4667°N, 113.3833°W)
Time: 20:08:16
(UTC+00:00)

Transit 2A - Pass Details

Date: 23 May 2024
Orbit: 592 x 959 km, 66.7° (Epoch: 19 June)

Event Time Altitude Azimuth Distance (km) Brightness Sun altitude
Exits shadow 07:36:33 - 241° (WSW) 2,663 8.5 -14.8°
Reaches altitude 10° 07:37:57 10° 245° (WSW) 2,131 8.0 -14.8°
Maximum altitude 07:42:41 52° 322° (NW) 918 6.7 -14.8°
Drops below altitude 10° 07:47:59 10° 39° (NE) 2,377 9.4 -14.7°
Sets 07:50:38 0° 44° (NE) 3,374 10.2 -14.7°
